Location: Unspecified
(0.0000°N, 0.0000°E)
Time: 07:33:20
(UTC+00:00)

Courier 1B - Pass Details

Date: 30 September 2023
Orbit: 962 x 1208 km, 28.3° (Epoch: 06 December)

Event Time Altitude Azimuth Distance (km) Brightness Sun altitude
Rises 09:01:57 0° 257° (WSW) 3,761 10.2 47.9°
Reaches altitude 10° 09:04:46 10° 264° (W) 2,843 9.6 48.6°
Maximum altitude 09:11:12 40° 332° (NNW) 1,556 8.8 50.2°
Drops below altitude 10° 09:18:02 10° 39° (NE) 3,010 10.5 51.9°
Sets 09:21:07 0° 47° (NE) 4,005 11.0 52.7°
